Location: Chrome
(40.5765°N, 74.2163°W)
Time: 12:28:36
(UTC+00:00)

RESURS DK-1 - Pass Details

Date: 06 December 2019
Orbit: 554 x 564 km, 69.9° (Epoch: 27 January)

Event Time Altitude Azimuth Distance (km) Brightness Sun altitude
Rises 22:56:23 0° 222° (SW) 2,719 6.9 -16.0°
Reaches altitude 10° 22:58:41 10° 230° (SW) 1,830 6.0 -16.4°
Maximum altitude 23:02:31 39° 300° (WNW) 845 3.6 -17.1°
Enters shadow 23:06:12 11° 9° (N) 1,770 4.7 -17.8°
